Weather History for KFVE - November, 2013

Change the Weather History Date:

Sunday, November 3, 2013

  Actual Average Record
Temperature  
Mean Temperature 29 °F 35 °F  
Max Temperature 34 °F 42 °F 60 °F (1997)
Min Temperature 23 °F 29 °F 14 °F (2002)
Degree Days  
Heating Degree Days 36    
Month to date heating degree days 76  
Since 1 July heating degree days 1147  
Cooling Degree Days 0    
Month to date cooling degree days 0  
Year to date cooling degree days 139  
Moisture  
Dew Point 13 °F    
Average Humidity 55    
Maximum Humidity 72    
Minimum Humidity 37    
Precipitation  
Precipitation 0.00 in 0.09 in 1.37 in (2007)
Month to date precipitation 0.17 0.27  
Year to date precipitation 30.60 28.39  
Sea Level Pressure  
Sea Level Pressure 30.11 in    
Wind  
Wind Speed 11 mph (NNW)    
Max Wind Speed 23 mph    
Max Gust Speed 32 mph    
Visibility 10 miles    
Events      
T = Trace of Precipitation, MM = Missing Value Source: NWS Daily Summary

Daily Weather History Graph

Daily Weather History Graph

Search for Another Location

Airport or City:

Trip Planner

Search our weather history database for the weather conditions in past years. The results will help you decide how hot, cold, wet, or windy it might be!

Date:

Astronomy

Nov. 03, 2013 Rise Set
Actual Time 6:19 AM EST 4:13 PM EST
Civil Twilight 5:47 AM EST 4:45 PM EST
Nautical Twilight 5:11 AM EST 5:21 PM EST
Astronomical Twilight 4:35 AM EST 5:57 PM EST
Moon 6:20 AM EST 4:23 PM EST
Length of Visible Light 10h 57m
Length of Day
9h 53m
New Moon, 0% of the Moon is Illuminated
Nov 3
New Moon
Nov 10
First Quarter
Nov 17
Full
Nov 25
Last Quarter
Dec 2
New

Hourly Weather History & Observations

Time (EST) Temp. Windchill Dew Point Humidity Pressure Visibility Wind Dir Wind Speed Gust Speed Precip Events Conditions
12:53 AM 27.0 °F 18.7 °F 16.0 °F 63% 29.86 in 10.0 mi NW 8.1 mph - N/A   Clear
1:53 AM 26.1 °F 18.4 °F 16.0 °F 66% 29.88 in 10.0 mi NW 6.9 mph - N/A   Clear
1:53 AM 26.1 °F 17.6 °F 16.0 °F 66% 29.90 in 10.0 mi NW 8.1 mph - N/A   Clear
2:53 AM 25.0 °F 17.1 °F 16.0 °F 69% 29.91 in 10.0 mi NW 6.9 mph - N/A   Clear
3:53 AM 25.0 °F 14.8 °F 16.0 °F 69% 29.96 in 10.0 mi WNW 10.4 mph - N/A   Clear
4:53 AM 24.1 °F 13.1 °F 15.1 °F 69% 29.96 in 10.0 mi NW 11.5 mph - N/A   Clear
5:53 AM 23.0 °F 13.1 °F 15.1 °F 72% 29.99 in 10.0 mi NW 9.2 mph - N/A   Clear
6:53 AM 26.1 °F 16.2 °F 16.0 °F 66% 30.02 in 10.0 mi NW 10.4 mph - N/A   Overcast
7:53 AM 27.0 °F 13.9 °F 12.0 °F 53% 30.06 in 10.0 mi NW 18.4 mph 27.6 mph N/A   Clear
8:53 AM 28.9 °F 18.2 °F 12.0 °F 49% 30.08 in 10.0 mi NNW 13.8 mph 24.2 mph N/A   Clear
9:53 AM 30.9 °F 20.7 °F 14.0 °F 50% 30.10 in 10.0 mi NW 13.8 mph - N/A   Partly Cloudy
10:53 AM 30.9 °F 18.7 °F 14.0 °F 50% 30.11 in 10.0 mi NNW 19.6 mph 25.3 mph N/A   Clear
11:53 AM 32.0 °F 22.5 °F 14.0 °F 48% 30.12 in 10.0 mi North 12.7 mph 23.0 mph N/A   Clear
12:53 PM 33.1 °F 22.2 °F 14.0 °F 46% 30.12 in 10.0 mi North 17.3 mph 25.3 mph N/A   Clear
1:53 PM 34.0 °F 25.0 °F 12.9 °F 42% 30.14 in 10.0 mi North 12.7 mph 20.7 mph N/A   Clear
2:53 PM 33.1 °F 23.9 °F 9.0 °F 37% 30.17 in 10.0 mi North 12.7 mph 20.7 mph N/A   Clear
3:53 PM 30.9 °F 21.7 °F 8.1 °F 38% 30.20 in 10.0 mi NNW 11.5 mph 18.4 mph N/A   Clear
4:53 PM 28.9 °F 20.4 °F 9.0 °F 43% 30.23 in 10.0 mi NNW 9.2 mph - N/A   Clear
5:53 PM 27.0 °F 19.5 °F 9.0 °F 47% 30.27 in 10.0 mi NNW 6.9 mph - N/A   Clear
6:53 PM 25.0 °F 17.1 °F 10.0 °F 53% 30.29 in 10.0 mi NNW 6.9 mph - N/A   Clear
7:53 PM 26.1 °F 17.6 °F 10.0 °F 51% 30.31 in 10.0 mi NNW 8.1 mph - N/A   Clear
8:53 PM 26.1 °F 16.2 °F 10.9 °F 53% 30.34 in 10.0 mi NNW 10.4 mph - N/A   Clear
9:53 PM 25.0 °F 15.5 °F 10.9 °F 55% 30.36 in 10.0 mi NW 9.2 mph - N/A   Clear
10:53 PM 24.1 °F 13.1 °F 10.9 °F 57% 30.35 in 10.0 mi NNW 11.5 mph - N/A   Clear